Regional Weather Roundup
Issued by NWS

Home | Current Version | Previous Version | Graphics & Text | Print | Product List | Glossary On
Versions: 1 2 3 4 5 6 7 8 9 10 11 12 13 14 15 16 17 18 19 20 21 22 23 24 25 26 27 28 29 30 31 32 33 34 35 36 37 38 39 40 41 42 43 44 45 46 47 48 49 50
000
ASUS43 KDTX 231710
RWRMI
MICHIGAN HOURLY REGIONAL WEATHER ROUNDUP
NATIONAL WEATHER SERVICE DETROIT/PONTIAC MI
1200 PM EST SUN NOV 23 2014

NOTE: "FAIR" INDICATES FEW OR NO CLOUDS BELOW 12,000 FEET WITH NO
SIGNIFICANT WEATHER AND/OR OBSTRUCTION TO VISIBILITY.

MIZ047>049-052>055-059>063-066>070-074>076-081>083-231800-
SOUTHEAST LOWER MICHIGAN

CITY           SKY/WX    TMP DP  RH WIND       PRES   REMARKS
ADRIAN         CLOUDY    50  44  80 S9        29.86F
ALMA           CLOUDY    50  46  87 S10       29.79F
ANN ARBOR      CLOUDY    48  43  82 S7        29.86F
BAD AXE        CLOUDY    49  47  93 S15       29.82F
CARO           CLOUDY    52  45  76 S10G16    29.81F
DETROIT CITY   CLOUDY    49  43  80 S7        29.89F
DETROIT        CLOUDY    47  44  90 SE7       29.88F
FLINT          CLOUDY    50  45  83 S10       29.84F
GROSSE ILE     CLOUDY    43  41  93 SE7       29.87F
HILLSDALE      CLOUDY    50  46  85 S6        29.82F
HOWELL         CLOUDY    46  44  91 S12       29.84F

CITY           SKY/WX    TMP DP  RH WIND       PRES   REMARKS
JACKSON        CLOUDY    49  44  83 S8        29.82F
LAMBERTVILLE   CLOUDY    52  45  76 S8        29.87F
LANSING        LGT RAIN  49  45  86 S10       29.82F
LAPEER         CLOUDY    48  45  88 S10       29.85F
MASON          CLOUDY    47  44  89 S13       29.82F
MONROE         CLOUDY    48  45  87 S5        29.86F
MT. CLEMENS    CLOUDY    44  44 100 S8        29.87F FOG
PONTIAC        CLOUDY    46  43  89 S8        29.85F
PORT HOPE        N/A     49  44  83 S8        29.81F
PORT HURON     CLOUDY    46  45  93 S10       29.89F
TRI CITIES     CLOUDY    50  45  83 S12       29.80F
TROY           RAIN      46  45  93 S7        29.89F
SAGINAW HB     CLOUDY    50  50 100 S16       29.80F
$$
MIZ043>046-050>051-056>058-064>065-071>073-077>080-231800-
SOUTHWEST LOWER MICHIGAN

CITY           SKY/WX    TMP DP  RH WIND       PRES   REMARKS
BATTLE CREEK   CLOUDY    51  44  77 S9        29.79F
BENTON HARBOR  CLOUDY    52  45  77 S10       29.74F
BIG RAPIDS     CLOUDY    47  45  95 S6        29.73F
COLDWATER      CLOUDY    51  45  80 S8        29.80F
FREMONT        LGT RAIN  47  44  90 S5        29.73F
HOLLAND        CLOUDY    51  46  83 S12       29.75F
GRAND RAPIDS   LGT RAIN  50  45  83 S14G23    29.77F
IONIA          LGT RAIN  50  47  90 S13       29.78F
KALAMAZOO      CLOUDY    50  44  80 S8        29.79F
LUDINGTON      CLOUDY    51  46  80 S10G23    29.68F
MARSHALL       CLOUDY    49  44  83 S7        29.79F
MOUNT PLEASANT CLOUDY    50  46  87 S6        29.77F
MUSKEGON       RAIN      52  46  80 S22G35    29.73F
SOUTH HAVEN    CLOUDY    52  46  81 S9        29.74F
$$
MIZ016>042-231800-
NORTHERN LOWER MICHIGAN

CITY           SKY/WX    TMP DP  RH WIND       PRES   REMARKS
ALPENA         CLOUDY    48  44  86 S10       29.75F
BEAVER ISLAND  CLOUDY    48  47  95 S7        29.65F FOG
BELLAIRE       CLOUDY    48  44  87 S7        29.68F
CADILLAC       CLOUDY    44  43  94 S7        29.71F
CHARLEVOIX     CLOUDY    47  46  99 S7        29.69F
FRANKFORT      CLOUDY    48  45  89 S12G20    29.66F
GAYLORD        CLOUDY    43  42  97 S14       29.68F FOG
GRAYLING       CLOUDY    48  48  99 S7        29.71F
HARBOR SPRINGS CLOUDY    46  44  96 S3        29.68F FOG
HOUGHTON LAKE  CLOUDY    47  45  93 S10       29.73F
MANISTEE       CLOUDY    46  43  87 S6        29.69F
OSCODA         PTSUNNY   47  45  91 S10G20    29.76F
PELLSTON       CLOUDY    45  44  97 S5        29.69F FOG
ROGERS CITY    CLOUDY    46  46 100 S8        29.72F FOG
TRAVERSE CITY  CLOUDY    51  43  74 VRB7G17   29.66F
$$
MIZ007>008-015-231800-
EASTERN UPPER MICHIGAN

CITY           SKY/WX    TMP DP  RH WIND       PRES   REMARKS
MACKINAC ISLAN FOG       44  44 100 S8        29.68F VSB 1/4
NEWBERRY       FOG       41  41 100 S12G21    29.63F VSB<1/4
S. S. MARIE    FOG       40  39  97 SE9       29.69F VSB 1/4 WCI  34
MUNISING         N/A     47  43  86 S12G22    29.56F
$$
MIZ004>006-011>014-085-231800-
CENTRAL UPPER MICHIGAN

CITY           SKY/WX    TMP DP  RH WIND       PRES   REMARKS
MANISTIQUE     FOG       41  41 100 S6        29.62F VSB<1/4
ESCANABA       CLOUDY    43  41  93 S8        29.59F VSB 1/2
MENOMINEE      CLOUDY    45  43  93 S9        29.58F VSB 1/4
SAWYER-GWINN   FOG       43  41  93 S15       29.55F VSB 1/16
$$
MIZ001>003-009>011-084-231800-
WESTERN UPPER MICHIGAN

CITY           SKY/WX    TMP DP  RH WIND       PRES   REMARKS
IRON MOUNTAIN  FOG       43  42  97 S7        29.53F VSB<1/4
HOUGHTON       CLOUDY    41  38  89 SE6       29.47F
COPPER HARBOR    N/A     44  40  85 W6        29.49F
IRONWOOD       CLOUDY    46  46 100 S13G21    29.41F
$$

ABBREVIATIONS USED IN REMARKS
   TC - TEMPERATURE IN CELSIUS
  WCI - WIND CHILL INDEX
   HX - HEAT INDEX
  VSB - VISIBILITY




USA.gov is the U.S. government's official web portal to all federal, state and local government web resources and services.